Regional Weather Roundup
Issued by NWS

Home | Current Version | Previous Version | Graphics & Text | Print | Product List | Glossary Off
Versions: 1 2 3 4 5 6 7 8 9 10 11 12 13 14 15 16 17 18 19 20 21 22 23 24 25 26 27 28 29 30 31 32 33 34 35 36 37 38 39 40 41 42 43 44 45 46 47 48 49 50

000
ASUS43 KTOP 302308
RWRKS

WEATHER ROUNDUP FOR KANSAS
NATIONAL WEATHER SERVICE GOODLAND KS
600 PM CDT THU JUL 30 2015

NOTE:  "FAIR" INDICATES FEW OR NO CLOUDS BELOW 12,000 FEET WITH NO
SIGNIFICANT WEATHER AND/OR OBSTRUCTIONS TO VISIBILITY.

KSZ001>006-013>018-027>032-041>047-310000-
NORTHWEST KANSAS

CITY           SKY/WX    TMP DP  RH WIND       PRES   REMARKS
GOODLAND       SUNNY     88  56  33 S12       30.21F
HAYS           MOSUNNY   88  64  45 S7        30.15F
HILL CITY      SUNNY     89  64  43 CALM      30.16F
RUSSELL        PTSUNNY   85  67  54 S6        30.14F
$$

KSZ061>065-074>080-084>089-310000-
SOUTHWEST KANSAS

CITY           SKY/WX    TMP DP  RH WIND       PRES   REMARKS
DODGE CITY     CLOUDY    81  68  64 SE8       30.19S
ELKHART          N/A     75  68  79 SE6         N/A
GARDEN CITY    CLOUDY    81  67  62 S5        30.19F
GREAT BEND     PTSUNNY   84  66  54 SE7       30.15S
LIBERAL        PTSUNNY   81  66  61 S3        30.20S
PRATT          MOSUNNY   81  63  54 CALM      30.17F
$$

KSZ066>073-081>083-090>101-310000-
SOUTHEAST KANSAS

CITY           SKY/WX    TMP DP  RH WIND       PRES   REMARKS
CHANUTE        CLOUDY    84  65  52 NE8       30.14F
COFFEYVILLE    CLOUDY    82  71  69 N8        30.11F
HUTCHINSON     MOSUNNY   84  67  56 SE8       30.15F
MEDICINE LODGE   N/A     82  69  64 CALM      30.13F
NEWTON         PTSUNNY   82  64  54 SE5       30.18F
PARSONS        CLOUDY    81  73  76 N3        30.14F
WICHITA INTL   MOSUNNY   84  69  60 E5        30.14F
WICHITA JABRA  MOSUNNY   83  68  60 E6        30.14F
WICHITA MCCONL MOSUNNY   83  67  58 E7        30.14F
WINFIELD       MOSUNNY   83  71  67 E7        30.14F
$$

KSZ007>012-019>026-033>040-048>060-102>105-310000-
NORTHEAST KANSAS

CITY           SKY/WX    TMP DP  RH WIND       PRES   REMARKS
CONCORDIA      MOSUNNY   86  68  54 SE8       30.14F
EMPORIA        MOSUNNY   82  64  54 E5        30.15F
LAWRENCE       MOSUNNY   84  64  50 E5        30.14F
MANHATTAN      MOSUNNY   88  62  41 S7        30.13F
MARYSVILLE     SUNNY     88  59  37 S8        30.14F
OLATHE IND     FAIR      85  57  38 CALM      30.16F
OLATHE EXE     FAIR      84  57  39 CALM      30.15F
SALINA         MOSUNNY   86  67  52 S6        30.13F
TOPEKA BILLARD MOSUNNY   85  60  42 E5        30.14F
TOPEKA FORBES  MOSUNNY   88  56  33 SE6       30.15F
$$


USA.gov is the U.S. government's official web portal to all federal, state and local government web resources and services.